Tracking 35334 objects as of 12-Sep-2026
HD Live streaming from Space Station
objects crossing your sky now

COSMOS 3 (SPUTNIK 13)


COSMOS 3 (SPUTNIK 13) is no longer on orbit


NORAD ID: 281
Int'l Code: 1962-013A
Launch date: April 24, 1962
Source: Commonwealth of Independent States (former USSR) (CIS)
Launch site: KAPUSTIN YAR MISSILE AND SPACE COMPLEX (KYMTR)
Decay date: 1962-10-17
Your satellite tracking list
Your tracking list is empty




NASA's NSSDC Master Catalog

Two Line Element Set (TLE):
1 00281U 62013  A 62286.69018669  .01346258 +57778-1 +00000-0 0  9996
2 00281 048.9525 018.5667 0045683 187.6986 080.4247 16.18663306026957
Source of the keplerian elements: AFSPC